When you browse on this site, cookies collect data to enhance your experience and personalize the content and advertising you see.
Visit our Privacy Policy to learn more. By continuing to use the site, you agree to this use of cookies and data.
  • In Lithuania
  • List of Countries
  • For 7 days
  • Water Temperature
  • Weather Map
  • Weather Widgets
  • user-avatar
    Login

    Hourly Weather Novye Vyselki

    Today, 28 January, Tuesday

    Time Temperature Precipitation Wind Pressure Humidity
    00:00 -2°C° 0.5 mm 3 mps 738 mmHg 97%
    01:00 -2°C° 0.7 mm 3 mps 738 mmHg 97%
    02:00 -4°C° 0.7 mm 4 mps 738 mmHg 97%
    03:00 -4°C° 0 mm 3 mps 738 mmHg 97%
    04:00 -4°C° 0.4 mm 3 mps 738 mmHg 97%
    05:00 -4°C° 0.4 mm 3 mps 737 mmHg 97%
    06:00 -4°C° 0.4 mm 3 mps 737 mmHg 97%
    07:00 -4°C° 0.2 mm 3 mps 737 mmHg 97%
    08:00 -4°C° 0.2 mm 3 mps 737 mmHg 97%
    09:00 -4°C° 0.2 mm 3 mps 737 mmHg 97%
    10:00 -4°C° 0.3 mm 4 mps 737 mmHg 96%
    11:00 -4°C° 0.3 mm 4 mps 737 mmHg 96%
    12:00 -3°C° 0.3 mm 4 mps 737 mmHg 96%
    13:00 -3°C° 0.1 mm 4 mps 736 mmHg 96%
    14:00 -3°C° 0.1 mm 4 mps 736 mmHg 96%
    15:00 -3°C° 0.1 mm 4 mps 736 mmHg 96%
    16:00 -2°C° 0 mm 3 mps 735 mmHg 96%
    17:00 -2°C° 0 mm 3 mps 735 mmHg 96%
    18:00 -2°C° 0 mm 3 mps 735 mmHg 97%
    19:00 -2°C° 0.1 mm 3 mps 735 mmHg 96%
    20:00 -2°C° 0.1 mm 3 mps 735 mmHg 96%
    21:00 -2°C° 0.1 mm 3 mps 736 mmHg 96%
    22:00 -2°C° 0 mm 3 mps 735 mmHg 96%
    23:00 -2°C° 0 mm 3 mps 735 mmHg 96%

    Tomorrow, 29 January, Wednesday

    Time Temperature Precipitation Wind Pressure Humidity
    00:00 -2°C° 0 mm 3 mps 735 mmHg 96%
    01:00 -2°C° 0.1 mm 3 mps 735 mmHg 97%
    02:00 -2°C° 0.1 mm 2 mps 735 mmHg 98%
    03:00 -1°C° 0.1 mm 2 mps 735 mmHg 98%
    04:00 -1°C° 0 mm 2 mps 735 mmHg 98%
    05:00 -1°C° 0 mm 2 mps 735 mmHg 98%
    06:00 -1°C° 0 mm 3 mps 734 mmHg 98%
    07:00 -1°C° 0.1 mm 3 mps 734 mmHg 98%
    08:00 -1°C° 0.1 mm 3 mps 734 mmHg 98%
    09:00 -1°C° 0.1 mm 3 mps 734 mmHg 97%
    10:00 -3°C° 0 mm 4 mps 734 mmHg 97%
    11:00 -3°C° 0 mm 4 mps 734 mmHg 97%
    12:00 -3°C° 0 mm 4 mps 733 mmHg 97%
    13:00 -3°C° 0 mm 4 mps 733 mmHg 98%
    14:00 -2°C° 0 mm 4 mps 733 mmHg 98%
    15:00 -1°C° 0 mm 3 mps 733 mmHg 99%
    16:00 -2°C° 0.1 mm 4 mps 732 mmHg 99%
    17:00 -1°C° 0.1 mm 4 mps 732 mmHg 99%
    18:00 -1°C° 0.1 mm 4 mps 732 mmHg 99%
    19:00 -1°C° 0.1 mm 4 mps 731 mmHg 99%
    20:00 -1°C° 0.1 mm 4 mps 731 mmHg 99%
    21:00 -1°C° 0.1 mm 5 mps 730 mmHg 99%
    22:00 -1°C° 0.1 mm 5 mps 730 mmHg 99%
    23:00 -1°C° 0.1 mm 5 mps 729 mmHg 99%

    Day after tomorrow, 30 January, Thursday

    Time Temperature Precipitation Wind Pressure Humidity
    00:00 -1°C° 0.1 mm 5 mps 729 mmHg 99%
    01:00 -1°C° 0.1 mm 5 mps 728 mmHg 99%
    02:00 -1°C° 0.1 mm 5 mps 728 mmHg 99%
    03:00 -1°C° 0.1 mm 5 mps 727 mmHg 99%
    04:00 -2°C° 0.2 mm 6 mps 727 mmHg 99%
    05:00 -2°C° 0.2 mm 6 mps 726 mmHg 99%
    06:00 -1°C° 0.2 mm 6 mps 726 mmHg 99%
    07:00 -2°C° 0.8 mm 6 mps 726 mmHg 98%
    08:00 -2°C° 0.8 mm 6 mps 726 mmHg 97%
    09:00 -3°C° 0.8 mm 6 mps 726 mmHg 96%
    10:00 -3°C° 0.1 mm 6 mps 726 mmHg 93%
    11:00 -3°C° 0.1 mm 6 mps 726 mmHg 91%
    12:00 -3°C° 0.1 mm 7 mps 726 mmHg 88%
    13:00 -3°C° 0 mm 7 mps 726 mmHg 88%
    14:00 -4°C° 0 mm 6 mps 727 mmHg 88%
    15:00 -4°C° 0 mm 6 mps 727 mmHg 88%
    16:00 -4°C° 0 mm 6 mps 727 mmHg 89%
    17:00 -4°C° 0 mm 6 mps 726 mmHg 91%
    18:00 -4°C° 0 mm 6 mps 726 mmHg 93%
    19:00 -4°C° 0.1 mm 6 mps 726 mmHg 93%
    20:00 -3°C° 0.1 mm 7 mps 726 mmHg 92%
    21:00 -3°C° 0.1 mm 7 mps 726 mmHg 92%
    22:00 -3°C° 0.1 mm 7 mps 726 mmHg 91%
    23:00 -3°C° 0.1 mm 7 mps 725 mmHg 90%

    31 January, Friday

    Time Temperature Precipitation Wind Pressure Humidity
    00:00 -3°C° 0.1 mm 7 mps 725 mmHg 90%
    01:00 -4°C° 0.2 mm 7 mps 725 mmHg 92%
    02:00 -4°C° 0.2 mm 7 mps 725 mmHg 94%
    03:00 -4°C° 0.2 mm 7 mps 725 mmHg 96%
    04:00 -4°C° 0.4 mm 7 mps 725 mmHg 95%
    05:00 -4°C° 0.4 mm 6 mps 724 mmHg 95%
    06:00 -4°C° 0.4 mm 5 mps 724 mmHg 95%
    07:00 -3°C° 0.2 mm 4 mps 724 mmHg 96%
    08:00 -2°C° 0.2 mm 3 mps 724 mmHg 96%
    09:00 -3°C° 0.2 mm 2 mps 724 mmHg 97%
    10:00 -2°C° 0.1 mm 2 mps 724 mmHg 97%
    11:00 -2°C° 0.1 mm 3 mps 724 mmHg 96%
    12:00 -2°C° 0.1 mm 3 mps 725 mmHg 96%
    13:00 -2°C° 0.1 mm 3 mps 725 mmHg 95%
    14:00 -3°C° 0.1 mm 4 mps 725 mmHg 94%
    15:00 -4°C° 0.1 mm 5 mps 725 mmHg 93%
    16:00 -4°C° 0 mm 5 mps 726 mmHg 92%
    17:00 -3°C° 0 mm 4 mps 726 mmHg 91%
    18:00 -4°C° 0 mm 4 mps 726 mmHg 91%
    19:00 -4°C° 0 mm 3 mps 727 mmHg 92%
    20:00 -5°C° 0 mm 3 mps 727 mmHg 93%
    21:00 -4°C° 0 mm 2 mps 727 mmHg 95%
    22:00 -5°C° 0.1 mm 3 mps 727 mmHg 95%
    23:00 -5°C° 0.1 mm 3 mps 728 mmHg 95%

    1 February, Saturday

    Time Temperature Precipitation Wind Pressure Humidity
    00:00 -5°C° 0.1 mm 3 mps 728 mmHg 95%
    01:00 -4°C° 0.1 mm 3 mps 728 mmHg 96%
    02:00 -4°C° 0.1 mm 3 mps 728 mmHg 96%
    03:00 -4°C° 0.1 mm 3 mps 729 mmHg 96%
    04:00 -4°C° 0 mm 3 mps 729 mmHg 96%
    05:00 -4°C° 0 mm 3 mps 729 mmHg 95%
    06:00 -4°C° 0 mm 4 mps 729 mmHg 95%
    07:00 -4°C° 0 mm 4 mps 729 mmHg 95%
    08:00 -4°C° 0 mm 3 mps 730 mmHg 95%
    09:00 -4°C° 0 mm 3 mps 730 mmHg 95%
    10:00 -4°C° 0 mm 3 mps 730 mmHg 95%
    11:00 -3°C° 0 mm 4 mps 730 mmHg 95%
    12:00 -2°C° 0 mm 4 mps 731 mmHg 95%
    13:00 -2°C° 0 mm 4 mps 731 mmHg 95%
    14:00 -2°C° 0 mm 4 mps 731 mmHg 95%
    15:00 -2°C° 0 mm 4 mps 731 mmHg 94%
    16:00 -2°C° 0 mm 4 mps 731 mmHg 95%
    17:00 -2°C° 0 mm 4 mps 731 mmHg 95%
    18:00 -3°C° 0 mm 4 mps 731 mmHg 96%
    19:00 -3°C° 0 mm 4 mps 731 mmHg 95%
    20:00 -2°C° 0 mm 4 mps 731 mmHg 95%
    21:00 -2°C° 0 mm 4 mps 731 mmHg 95%
    22:00 -2°C° 0.1 mm 4 mps 731 mmHg 96%
    23:00 -2°C° 0.1 mm 4 mps 731 mmHg 97%

    2 February, Sunday

    Time Temperature Precipitation Wind Pressure Humidity
    00:00 -2°C° 0.1 mm 5 mps 731 mmHg 97%
    01:00 -2°C° 0 mm 5 mps 731 mmHg 97%
    02:00 -2°C° 0 mm 5 mps 731 mmHg 97%
    03:00 -2°C° 0 mm 5 mps 731 mmHg 97%
    04:00 -2°C° 0 mm 5 mps 731 mmHg 97%
    05:00 -2°C° 0 mm 4 mps 731 mmHg 97%
    06:00 -2°C° 0 mm 4 mps 730 mmHg 97%
    07:00 -2°C° 0 mm 4 mps 730 mmHg 97%
    08:00 -2°C° 0 mm 4 mps 730 mmHg 97%
    09:00 -2°C° 0 mm 4 mps 730 mmHg 96%
    10:00 -2°C° 0 mm 4 mps 730 mmHg 97%
    11:00 -2°C° 0 mm 5 mps 730 mmHg 98%
    12:00 -2°C° 0 mm 5 mps 730 mmHg 99%
    13:00 -1°C° 0.5 mm 5 mps 729 mmHg 99%
    14:00 -1°C° 0.5 mm 5 mps 729 mmHg 98%
    15:00 -1°C° 0.5 mm 5 mps 728 mmHg 98%
    16:00 -1°C° 0.6 mm 5 mps 728 mmHg 98%
    17:00 -1°C° 0.6 mm 5 mps 728 mmHg 98%
    18:00 -1°C° 0.6 mm 5 mps 727 mmHg 98%
    19:00 -1°C° 0.4 mm 5 mps 727 mmHg 98%
    20:00 -1°C° 0.4 mm 4 mps 726 mmHg 99%
    21:00 -1°C° 0.4 mm 4 mps 726 mmHg 99%
    22:00 -1°C° 0.5 mm 4 mps 726 mmHg 99%
    23:00 0°C° 0.5 mm 3 mps 726 mmHg 99%
    Show more